[[{"header":{"parameterUnit":"m.s-1","parameterCategory":1,"la1":30.2991,"la2":30.254,"lo1":-89.0895,"lo2":-89.0444,"dy":0.0017,"dx":0.0017,"nx":28,"ny":28,"refTime":"2024-10-06T09:00:00:Z","depth":0,"parameterNumber":2,"parameterNumberName":"U-component_of_WINDS"},"data":[0,0,0,0,0,0,0,0,0,0,0,0,0,0,0,0,0,0,0,0,0,0,0,0,0,0,0,0,0,0,0,0,0,0,0,0,0,0,0,0,0,0,0,0,0,0,0,0,0,0,0,0,0,0,0,0,0,0,-1.9321,-1.932,0,-1.9275,-1.9274,-1.9274,-1.9208,-1.9207,-1.9205,-1.9204,-1.9159,-1.9159,-1.9159,0,0,0,0,0,0,0,0,0,0,0,0,0,-1.9356,-1.9356,-1.9321,-1.932,-1.932,-1.9275,-1.9274,-1.9273,-1.9208,-1.9207,-1.9205,-1.9204,-1.9159,-1.9159,-1.9159,0,0,0,0,0,0,0,0,0,0,0,0,0,-1.9329,-1.9356,-1.9321,-1.9282,-1.9278,-1.9275,-1.9274,-1.9273,-1.9208,-1.9206,-1.9205,-1.9203,-1.9159,-1.9159,-1.9158,-1.9191,0,0,-1.9158,-1.9158,0,0,0,0,0,0,0,0,-1.933,-1.9327,-1.9288,-1.9284,-1.928,-1.9245,-1.927,-1.9246,-1.9209,-1.9235,-1.9204,-1.9202,-1.9189,-1.9186,-1.9181,-1.9189,-1.9187,-1.9158,-1.9158,-1.9158,-1.9157,0,0,0,0,0,0,0,-1.9332,-1.9329,-1.9303,-1.9288,-1.9283,-1.9268,-1.9262,-1.9265,-1.9222,-1.9232,-1.9227,-1.9223,-1.9187,-1.9182,-1.918,-1.9186,-1.9158,-1.9158,-1.9157,-1.9157,-1.9224,-1.9226,0,0,0,0,0,0,-1.934,-1.9331,-1.9304,-1.9301,-1.9301,-1.9268,-1.9262,-1.9258,-1.9222,-1.9215,-1.9224,-1.922,-1.9183,-1.918,-1.9178,-1.9217,-1.9158,-1.9157,-1.9157,-1.9222,-1.9224,-1.9226,0,0,0,0,0,0,-1.9341,-1.9338,-1.9306,-1.9315,-1.931,-1.9269,-1.9266,-1.9258,-1.9253,-1.9216,-1.9208,-1.9227,-1.9182,-1.9178,-1.9189,-1.9215,-1.9157,-1.9157,-1.922,-1.9223,-1.9225,-1.9295,0,0,0,0,0,0,-1.9342,-1.9339,-1.935,-1.9316,-1.9309,-1.9317,-1.9267,-1.9258,-1.9253,-1.9247,-1.9216,-1.921,-1.918,-1.919,-1.9189,-1.9214,-1.9157,-1.9217,-1.9221,-1.9224,-1.929,-1.93,-1.9308,0,0,0,0,0,-1.9343,-1.937,-1.935,-1.9348,-1.9322,-1.9319,-1.9315,-1.928,-1.9255,-1.9267,-1.9243,-1.9211,-1.9212,-1.9192,-1.919,-1.9215,-1.9216,-1.922,-1.9224,-1.9286,-1.9298,-1.9308,0,0,0,0,0,0,-1.9408,-1.9365,-1.9342,-1.9359,-1.9343,-1.9307,-1.9321,-1.9293,-1.9284,-1.9279,-1.9236,-1.923,-1.9247,-1.9231,-1.921,-1.9247,-1.9209,-1.9213,-1.9257,-1.9268,-1.9276,-1.9281,-1.9157,0,0,0,0,0,-1.9424,-1.9424,-1.9387,-1.9405,-1.9398,-1.9361,-1.9358,-1.9333,-1.9315,-1.9308,-1.9285,-1.927,-1.9267,-1.9266,-1.9261,-1.9287,-1.9282,-1.9304,-1.9312,-1.932,-1.9325,-1.9342,-1.9353,-1.924,-1.924,-1.924,0,0,-1.9457,-1.9434,-1.9436,-1.9417,-1.9402,-1.9405,-1.9356,-1.936,-1.9362,-1.9308,-1.9319,-1.9302,-1.9282,-1.9302,-1.9309,-1.929,-1.9355,-1.9325,-1.9332,-1.9332,-1.9348,-1.9359,-1.9368,-1.9243,-1.9243,-1.9242,0,0,-1.952,-1.9501,-1.9516,-1.9502,-1.948,-1.9456,-1.946,-1.9429,-1.9416,-1.9425,-1.9386,-1.9389,-1.9384,-1.9373,-1.9367,-1.9429,-1.9401,-1.9429,-1.9476,-1.9494,-1.9503,-1.951,-1.9537,-1.9546,-1.9433,-1.9433,-1.9433,0,-1.9564,-1.9566,-1.9527,-1.9535,-1.9529,-1.9481,-1.9498,-1.9486,-1.9464,-1.9462,-1.944,-1.9436,-1.9418,-1.9438,-1.9453,-1.9448,-1.9454,-1.9433,-1.9504,-1.9512,-1.9518,-1.9543,-1.9553,-1.9437,-1.9437,-1.9436,-1.9436,0,-1.9624,-1.9626,-1.9641,-1.9622,-1.9618,-1.9629,-1.9595,-1.9595,-1.9571,-1.955,-1.9562,-1.954,-1.9532,-1.9534,-1.951,-1.9552,-1.954,-1.9512,-1.9473,-1.9534,-1.9557,-1.9565,-1.9443,-1.9441,-1.944,-1.9439,0,0,-1.9725,-1.9686,-1.9693,-1.9686,-1.9659,-1.9661,-1.9672,-1.9664,-1.9668,-1.9654,-1.9665,-1.9663,-1.9638,-1.9631,-1.9605,-1.962,-1.9677,-1.959,-1.9589,-1.961,-1.9727,-1.9751,-1.9762,-1.9657,-1.9658,-1.9659,-1.973,0,-1.9786,-1.9802,-1.9769,-1.9795,-1.9799,-1.9754,-1.9765,-1.9751,-1.9732,-1.9734,-1.9713,-1.9715,-1.9679,-1.9675,-1.9688,-1.9667,-1.97,-1.9661,-1.967,-1.967,-1.9679,-1.9773,-1.9798,-1.9865,-1.9738,-1.9739,-1.974,0,-1.9857,-1.985,-1.9876,-1.9852,-1.9852,-1.9862,-1.9855,-1.9855,-1.984,-1.9826,-1.982,-1.979,-1.9803,-1.9764,-1.9782,-1.9757,-1.9758,-1.9749,-1.9751,-1.9753,-1.9711,-1.9782,-1.9885,-1.9897,-1.9753,-1.9752,-1.9751,0,-1.9934,-1.993,-1.9946,-1.994,-1.9911,-1.992,-1.9909,-1.9891,-1.989,-1.9884,-1.9884,-1.9879,-1.9877,-1.9875,-1.9846,-1.982,-1.987,-1.9827,-1.9861,-1.9863,-1.9876,-1.9876,-1.9985,-1.9871,-1.9871,-1.9871,-1.9871,0,-2.0007,-2.0025,-1.9981,-1.9991,-2.0012,-1.9974,-1.9997,-1.9981,-1.9967,-1.9975,-1.9936,-1.9945,-1.9904,-1.991,-1.9887,-1.9909,-1.9907,-1.9898,-1.9893,-1.9904,-1.9906,-1.9907,-1.9903,-1.9873,-1.9873,-1.9872,-1.9872,0,-2.0096,-2.0066,-2.0082,-2.0054,-2.0048,-2.0065,-2.0042,-2.0052,-2.0031,-2.0043,-2.0043,-2.0012,-2.0017,-1.9987,-1.9986,-1.9971,-2.0005,-1.999,-2.0011,-2.0008,-2.0045,-2.0043,-2.0161,-2.0177,-2.0049,-2.005,-2.0051,0,-2.0146,-2.016,-2.0134,-2.0137,-2.0128,-2.0132,-2.0132,-2.0096,-2.0097,-2.0083,-2.0096,-2.0098,-2.0097,-2.0108,-2.0086,-2.0087,-2.0073,-2.0115,-2.0073,-2.0086,-2.0079,-2.0081,-2.0084,-2.0124,-2.0126,-2.0127,-2.0128,0,-2.0239,-2.0224,-2.0224,-2.0221,-2.0222,-2.0217,-2.021,-2.0214,-2.0176,-2.018,-2.0185,-2.0185,-2.0186,-2.019,-2.0186,-2.0176,-2.0148,-2.0141,-2.015,-2.0163,-2.0177,-2.0175,-2.0039,-2.0139,-2.0138,-2.0137,-2.0137,-2.0136,-2.0313,-2.0325,-2.031,-2.0313,-2.0304,-2.0299,-2.0308,-2.029,-2.0293,-2.0291,-2.0269,-2.028,-2.0268,-2.026,-2.0254,-2.0263,-2.0244,-2.0255,-2.0259,-2.0263,-2.0272,-2.0173,-2.0262,-2.0261,-2.0261,-2.0261,-2.026,0,-2.0407,-2.0396,-2.0399,-2.0391,-2.0395,-2.0366,-2.0358,-2.0363,-2.0372,-2.0363,-2.0364,-2.0373,-2.0377,-2.0357,-2.0359,-2.0371,-2.0358,-2.0373,-2.0374,-2.0373,-2.0286,-2.0281,-2.0383,-2.0383,-2.0383,-2.0383,-2.0383,-2.0383,-2.0457,-2.0478,-2.0462,-2.0479,-2.0468,-2.0477,-2.0476,-2.0472,-2.0466,-2.0476,-2.048,-2.0466,-2.0454,-2.0456,-2.046,-2.0454,-2.0459,-2.0479,-2.047,-2.039,-2.0378,-2.0367,-2.0362,-2.048,-2.048,-2.0556,-2.0557,-2.0557]},{"header":{"parameterUnit":"m.s-1","parameterCategory":1,"la1":30.2991,"la2":30.254,"lo1":-89.0895,"lo2":-89.0444,"dy":0.0017,"dx":0.0017,"nx":28,"ny":28,"refTime":"2024-10-06T09:00:00:Z","depth":0,"parameterNumber":3,"parameterNumberName":"V-component_of_WINDS"},"data":[0,0,0,0,0,0,0,0,0,0,0,0,0,0,0,0,0,0,0,0,0,0,0,0,0,0,0,0,0,0,0,0,0,0,0,0,0,0,0,0,0,0,0,0,0,0,0,0,0,0,0,0,0,0,0,0,0,0,-1.8134,-1.8133,0,-1.8105,-1.8105,-1.8104,-1.8112,-1.8113,-1.8113,-1.8114,-1.8081,-1.8079,-1.8078,0,0,0,0,0,0,0,0,0,0,0,0,0,-1.8191,-1.819,-1.8134,-1.8133,-1.8133,-1.8105,-1.8105,-1.8104,-1.8112,-1.8113,-1.8113,-1.8114,-1.8081,-1.808,-1.8078,0,0,0,0,0,0,0,0,0,0,0,0,0,-1.8165,-1.819,-1.8134,-1.8133,-1.8133,-1.8105,-1.8105,-1.8104,-1.8112,-1.8113,-1.8114,-1.8114,-1.8082,-1.808,-1.8078,-1.8047,0,0,-1.8071,-1.807,0,0,0,0,0,0,0,0,-1.8166,-1.8163,-1.8134,-1.8133,-1.8133,-1.8113,-1.8113,-1.8085,-1.8112,-1.812,-1.8114,-1.8115,-1.8091,-1.8088,-1.808,-1.8045,-1.8044,-1.8071,-1.807,-1.8069,-1.8068,0,0,0,0,0,0,0,-1.8168,-1.8164,-1.8122,-1.8133,-1.8133,-1.8134,-1.8131,-1.8108,-1.81,-1.8119,-1.812,-1.8116,-1.809,-1.8082,-1.808,-1.8043,-1.8071,-1.8069,-1.8068,-1.8067,-1.7981,-1.798,0,0,0,0,0,0,-1.8171,-1.8165,-1.8123,-1.8121,-1.8152,-1.8132,-1.8129,-1.8118,-1.8101,-1.8099,-1.8116,-1.8117,-1.8086,-1.8082,-1.8078,-1.8041,-1.8069,-1.8067,-1.8065,-1.7982,-1.7981,-1.798,0,0,0,0,0,0,-1.8172,-1.8167,-1.8124,-1.8143,-1.8138,-1.813,-1.8118,-1.8117,-1.8109,-1.8098,-1.8097,-1.8109,-1.8086,-1.8081,-1.8055,-1.804,-1.8066,-1.8064,-1.7983,-1.7982,-1.798,-1.7966,0,0,0,0,0,0,-1.8174,-1.8167,-1.8156,-1.8143,-1.8137,-1.8102,-1.8117,-1.8116,-1.8106,-1.8107,-1.8091,-1.809,-1.8086,-1.8058,-1.8053,-1.8038,-1.8062,-1.7984,-1.7982,-1.7981,-1.7968,-1.7965,-1.7962,0,0,0,0,0,-1.8176,-1.8153,-1.8156,-1.8151,-1.8123,-1.8101,-1.8098,-1.8096,-1.8105,-1.8093,-1.8086,-1.809,-1.8043,-1.8055,-1.8049,-1.8033,-1.7985,-1.7983,-1.7981,-1.797,-1.7965,-1.7962,0,0,0,0,0,0,-1.8163,-1.8151,-1.8154,-1.8127,-1.8115,-1.8103,-1.8088,-1.8091,-1.8076,-1.8077,-1.8074,-1.807,-1.8043,-1.8035,-1.805,-1.8002,-1.8015,-1.8012,-1.8009,-1.8004,-1.8001,-1.8004,-1.806,0,0,0,0,0,-1.8158,-1.8142,-1.8132,-1.8108,-1.8102,-1.8096,-1.8086,-1.8086,-1.8073,-1.8068,-1.8059,-1.8045,-1.8027,-1.8015,-1.7998,-1.7967,-1.7963,-1.7953,-1.795,-1.7947,-1.7944,-1.7927,-1.7922,-1.7972,-1.7972,-1.7972,0,0,-1.8145,-1.8137,-1.8127,-1.8106,-1.8096,-1.8079,-1.8092,-1.8073,-1.806,-1.8065,-1.8039,-1.8032,-1.8016,-1.7987,-1.7974,-1.798,-1.7929,-1.7944,-1.7942,-1.7941,-1.7924,-1.7919,-1.7915,-1.7971,-1.7971,-1.7971,0,0,-1.8114,-1.8106,-1.8086,-1.8077,-1.8063,-1.8059,-1.8054,-1.8041,-1.8037,-1.8012,-1.8015,-1.7998,-1.7968,-1.7957,-1.7947,-1.7911,-1.7914,-1.7906,-1.7889,-1.7872,-1.7868,-1.7864,-1.7851,-1.7847,-1.7903,-1.7902,-1.7902,0,-1.81,-1.8076,-1.8075,-1.8056,-1.8046,-1.8051,-1.803,-1.802,-1.8001,-1.7994,-1.8001,-1.7963,-1.7953,-1.7921,-1.7912,-1.7904,-1.7898,-1.7908,-1.7869,-1.7865,-1.7862,-1.7849,-1.7845,-1.7902,-1.7902,-1.7902,-1.7902,0,-1.8059,-1.8042,-1.8027,-1.801,-1.7998,-1.7978,-1.7973,-1.7961,-1.7962,-1.7957,-1.793,-1.7918,-1.7899,-1.7891,-1.7891,-1.7859,-1.7864,-1.787,-1.7882,-1.7856,-1.7844,-1.784,-1.79,-1.7901,-1.7901,-1.7901,0,0,-1.8019,-1.8003,-1.7997,-1.799,-1.7975,-1.7961,-1.794,-1.7922,-1.7912,-1.7899,-1.7881,-1.7855,-1.786,-1.7849,-1.7848,-1.7833,-1.7805,-1.7841,-1.784,-1.7835,-1.7769,-1.7765,-1.776,-1.7807,-1.7806,-1.7805,-1.7771,0,-1.7987,-1.7953,-1.7952,-1.792,-1.7904,-1.7908,-1.789,-1.7878,-1.7873,-1.7857,-1.785,-1.7832,-1.7841,-1.7834,-1.782,-1.7812,-1.7792,-1.7814,-1.779,-1.7789,-1.7794,-1.7754,-1.7749,-1.7717,-1.7766,-1.7765,-1.7765,0,-1.7945,-1.7932,-1.7899,-1.7887,-1.788,-1.7864,-1.7847,-1.7832,-1.7819,-1.7816,-1.7803,-1.7804,-1.7782,-1.7795,-1.7764,-1.7779,-1.7769,-1.7764,-1.7762,-1.776,-1.7776,-1.7751,-1.7707,-1.7702,-1.7758,-1.7758,-1.7759,0,-1.792,-1.7893,-1.787,-1.7863,-1.7848,-1.7837,-1.783,-1.7818,-1.7807,-1.7792,-1.7785,-1.7766,-1.7757,-1.7742,-1.7737,-1.7747,-1.7706,-1.7719,-1.7703,-1.7703,-1.7694,-1.7695,-1.7648,-1.7687,-1.7687,-1.7687,-1.7687,0,-1.7884,-1.7864,-1.7859,-1.7845,-1.7822,-1.782,-1.7797,-1.779,-1.7779,-1.7762,-1.7764,-1.7748,-1.7743,-1.7726,-1.7722,-1.7697,-1.7692,-1.7688,-1.7687,-1.7688,-1.7689,-1.7682,-1.7684,-1.7686,-1.7686,-1.7686,-1.7687,0,-1.7852,-1.7848,-1.7823,-1.7811,-1.7808,-1.7791,-1.7781,-1.7766,-1.7761,-1.774,-1.7735,-1.7727,-1.7707,-1.77,-1.7676,-1.7673,-1.7644,-1.7645,-1.7649,-1.7649,-1.7633,-1.7634,-1.758,-1.7573,-1.7616,-1.7616,-1.7615,0,-1.783,-1.7815,-1.7801,-1.7791,-1.7784,-1.7768,-1.7757,-1.7754,-1.7743,-1.7726,-1.7713,-1.7694,-1.7679,-1.7646,-1.7637,-1.7618,-1.7619,-1.7601,-1.7616,-1.7618,-1.7619,-1.762,-1.7618,-1.7599,-1.7598,-1.7598,-1.7597,0,-1.7791,-1.779,-1.7775,-1.776,-1.7747,-1.7734,-1.7722,-1.7713,-1.7708,-1.7695,-1.7675,-1.7663,-1.7639,-1.762,-1.7601,-1.7592,-1.7593,-1.7593,-1.7588,-1.7589,-1.7592,-1.759,-1.7642,-1.7594,-1.7595,-1.7595,-1.7595,-1.7595,-1.7763,-1.775,-1.7739,-1.7722,-1.7713,-1.7701,-1.7687,-1.7681,-1.7665,-1.7646,-1.7644,-1.7623,-1.7609,-1.7584,-1.7574,-1.7557,-1.7562,-1.7554,-1.7553,-1.7551,-1.755,-1.7595,-1.7553,-1.7553,-1.7553,-1.7553,-1.7553,0,-1.7724,-1.7717,-1.7702,-1.7686,-1.7672,-1.7676,-1.7663,-1.7651,-1.7633,-1.762,-1.7605,-1.7582,-1.7563,-1.7553,-1.7533,-1.7521,-1.7522,-1.7516,-1.7517,-1.7515,-1.7547,-1.7553,-1.7517,-1.7517,-1.7517,-1.7517,-1.7517,-1.7517,-1.7703,-1.7681,-1.7678,-1.765,-1.7643,-1.7624,-1.7615,-1.7604,-1.7594,-1.7569,-1.7554,-1.7548,-1.7536,-1.7516,-1.7498,-1.7495,-1.7488,-1.7482,-1.748,-1.7509,-1.7513,-1.7517,-1.7523,-1.7481,-1.7481,-1.745,-1.745,-1.745]}]]